This is the latest recevied weather packets stored in our database for station/object N8QQQ. If no packets are shown the sender has not sent any weather packets the latest 10 day(s).
| Time | Temp. | Humidity | Pressure | Rain* | Wind** | Luminosity | Snow |
|---|---|---|---|---|---|---|---|
| 1777819058 | 12.78° C | 64% | 1004.2 hPa | 0 mm | - | 223 W/m² | - |
| 1777818755 | 12.22° C | 67% | 1004.2 hPa | 0 mm | - | 322 W/m² | - |
| 1777818451 | 11.11° C | 69% | 1004.3 hPa | 0 mm | - | 417 W/m² | - |
| 1777818148 | 10.56° C | 70% | 1004.4 hPa | 0 mm | - | 427 W/m² | - |
| 1777817845 | 10.56° C | 74% | 1004.4 hPa | 0 mm | - | 161 W/m² | - |
| 1777817543 | 10° C | 73% | 1004.5 hPa | 0 mm | - | 270 W/m² | - |
| 1777817239 | 10° C | 74% | 1004.5 hPa | 0 mm | - | 153 W/m² | - |
| 1777816936 | 9.44° C | 77% | 1004.6 hPa | 0 mm | - | 158 W/m² | - |
| 1777816633 | 8.89° C | 79% | 1005 hPa | 0 mm | - | 92 W/m² | - |
| 1777816330 | 8.33° C | 82% | 1004.7 hPa | 0 mm | - | 118 W/m² | - |
| 1777816027 | 7.78° C | 83% | 1004.6 hPa | 0 mm | - | 97 W/m² | - |
| 1777815725 | 7.78° C | 82% | 1005 hPa | 0 mm | - | 68 W/m² | - |
| 1777815422 | 7.78° C | 84% | 1004.9 hPa | 0 mm | - | 46 W/m² | - |
| 1777815119 | 7.22° C | 86% | 1005.2 hPa | 0 mm | - | 63 W/m² | - |
| 1777814815 | 7.22° C | 86% | 1005.1 hPa | 0 mm | - | 41 W/m² | - |
| 1777814512 | 6.67° C | 91% | 1005.2 hPa | 0 mm | - | 34 W/m² | - |
| 1777814209 | 6.67° C | 92% | 1005.2 hPa | 0 mm | - | 23 W/m² | - |
| 1777813906 | 6.67° C | 93% | 1005.1 hPa | 0 mm | - | 37 W/m² | - |
| 1777813603 | 7.22° C | 91% | 1005 hPa | 0 mm | - | 33 W/m² | - |
| 1777813301 | 6.67° C | 89% | 1004.9 hPa | 0 mm | - | 35 W/m² | - |
| 1777812998 | 6.11° C | 93% | 1004.9 hPa | 0 mm | - | 70 W/m² | - |
| 1777812696 | 5.56° C | 93% | 1005.1 hPa | 0 mm | - | 79 W/m² | - |
| 1777812392 | 5° C | 94% | 1005.2 hPa | 0 mm | - | 93 W/m² | - |
| 1777812091 | 4.44° C | 95% | 1005.3 hPa | 0 mm | - | 64 W/m² | - |
| 1777811788 | 3.89° C | 95% | 1005.3 hPa | 0 mm | - | 57 W/m² | - |
* Rain latest hour (hover to see other rain measurements)
** Current wind speed in m/s (hover to see current wind gust speed)